Weather History for Goldsboro, NC

Change the Weather History Date:

Tuesday, February 5, 2013

  Actual Average Record
Temperature  
Mean Temperature 52 °F -  
Max Temperature 63 °F 54 °F 77 °F (2008)
Min Temperature 40 °F 34 °F 20 °F (2009)
Degree Days  
Heating Degree Days 14    
Growing Degree Days 2 (Base 50)    
Moisture  
Dew Point 33 °F    
Average Humidity 56    
Maximum Humidity 78    
Minimum Humidity 31    
Precipitation  
Precipitation 0.00 in - - ()
Sea Level Pressure  
Sea Level Pressure 29.95 in    
Wind  
Wind Speed 7 mph (SW)    
Max Wind Speed 20 mph    
Max Gust Speed 25 mph    
Visibility 10 miles    
Events      
Averages and records for this station are not official NWS values.
T = Trace of Precipitation, MM = Missing Value Source: NWS Daily Summary

Daily Weather History Graph

Daily Weather History Graph

Search for Another Location

Airport:

Trip Planner

Search our weather history database for the weather conditions in past years. The results will help you decide how hot, cold, wet, or windy it might be!

Date:

Astronomy

Feb. 05, 2013 Rise Set
Actual Time 7:07 AM EST 5:44 PM EST
Civil Twilight 6:41 AM EST 6:10 PM EST
Nautical Twilight 6:11 AM EST 6:41 PM EST
Astronomical Twilight 5:41 AM EST 7:10 PM EST
Moon 2:43 AM EST (2/5) 1:04 PM EST (2/5)
Length of Visible Light 11h 29m
Length of Day
10h 36m
Waning Crescent, 27% of the Moon is Illuminated
Feb 5
Waning Crescent
Feb 10
New
Feb 17
First Quarter
Feb 25
Full
Mar 4
Last Quarter

Hourly Weather History & Observations

Time (EST) Temp. Windchill Dew Point Humidity Pressure Visibility Wind Dir Wind Speed Gust Speed Precip Events Conditions
12:55 AM 40.1 °F 36.9 °F 30.9 °F 70% 30.02 in 10.0 mi South 4.6 mph - N/A   Clear
1:55 AM 40.3 °F 37.1 °F 31.3 °F 70% 30.01 in 10.0 mi SSW 4.6 mph - N/A   Overcast
2:55 AM 40.5 °F 36.5 °F 31.5 °F 70% 29.98 in 10.0 mi SSW 5.8 mph - N/A   Overcast
3:55 AM 40.3 °F 36.3 °F 31.6 °F 71% 29.96 in 10.0 mi SSW 5.8 mph - N/A   Overcast
4:55 AM 41.0 °F - 32.0 °F 70% 29.96 in 10.0 mi Calm Calm - N/A   Overcast
5:55 AM 41.4 °F 37.6 °F 32.7 °F 71% 29.97 in 10.0 mi SSW 5.8 mph - N/A   Overcast
6:55 AM 40.3 °F 37.1 °F 32.5 °F 74% 29.97 in 10.0 mi SW 4.6 mph - N/A   Mostly Cloudy
7:55 AM 40.1 °F 36.9 °F 33.4 °F 77% 30.01 in 10.0 mi SW 4.6 mph - N/A   Clear
8:55 AM 46.6 °F - 34.3 °F 62% 30.00 in 10.0 mi SW 10.4 mph - N/A   Clear
9:55 AM 51.6 °F - 32.2 °F 47% 30.01 in 10.0 mi SW 15.0 mph - N/A   Clear
10:55 AM 57.0 °F - 31.1 °F 37% 30.00 in 10.0 mi WSW 17.3 mph 25.3 mph N/A   Mostly Cloudy
11:55 AM 58.6 °F - 31.1 °F 35% 29.97 in 10.0 mi WSW 17.3 mph - N/A   Scattered Clouds
12:55 PM 62.4 °F - 31.6 °F 31% 29.93 in 10.0 mi West 19.6 mph 24.2 mph N/A   Scattered Clouds
1:55 PM 62.2 °F - 32.0 °F 32% 29.90 in 10.0 mi SW 11.5 mph - N/A   Mostly Cloudy
2:55 PM 62.4 °F - 32.5 °F 33% 29.88 in 10.0 mi SW 12.7 mph - N/A   Mostly Cloudy
3:55 PM 63.5 °F - 33.6 °F 33% 29.86 in 10.0 mi SW 17.3 mph 25.3 mph N/A   Clear
4:55 PM 62.1 °F - 34.7 °F 36% 29.87 in 10.0 mi SW 12.7 mph - N/A   Clear
5:55 PM 56.1 °F - 34.7 °F 45% 29.88 in 10.0 mi SW 8.1 mph - N/A   Clear
6:55 PM 55.4 °F - 34.7 °F 46% 29.91 in 10.0 mi WSW 3.5 mph - N/A   Partly Cloudy
7:55 PM 52.2 °F - 35.1 °F 52% 29.92 in 10.0 mi Calm Calm - N/A   Clear
8:55 PM 47.8 °F - 35.6 °F 63% 29.94 in 10.0 mi Calm Calm - N/A   Mostly Cloudy
9:55 PM 45.7 °F - 35.4 °F 67% 29.95 in 10.0 mi Calm Calm - N/A   Partly Cloudy
10:55 PM 43.5 °F - 35.8 °F 74% 29.96 in 10.0 mi Calm Calm - N/A   Clear
11:55 PM 41.9 °F - 35.4 °F 78% 29.97 in 10.0 mi Calm Calm - N/A   Clear